Miscellaneous Local Product
Issued by NWS Hastings, NE

Home | Current Version | Previous Version | Text Only | Print | Product List | Glossary Off
Versions: 1 2 3 4 5 6 7 8 9 10 11 12 13 14 15 16 17 18 19 20 21 22 23 24 25 26 27 28 29 30 31 32 33 34 35 36 37 38 39 40 41 42 43 44 45 46 47 48 49 50

000
AXUS43 KGID 011602
MISGRI

GID CWA HOURLY WEATHER ROUNDUP
NATIONAL WEATHER SERVICE HASTINGS NE
1000 AM CST SUN MAR 01 2015

NOTE: "FAIR" INDICATES FEW OR NO CLOUDS BELOW 12,000 FEET WITH NO
SIGNIFICANT WEATHER AND/OR OBSTRUCTIONS TO VISIBILITY.

...SOUTH CENTRAL NEBRASKA...

CITY           SKY/WX    TMP DP  RH WIND       PRES   REMARKS
GRAND ISLAND   SUNNY     25  16  68 NE7       30.35S WCI  17
HASTINGS       SUNNY     27  17  66 N9        30.33R WCI  18
KEARNEY        SUNNY     27  14  59 N8        30.34R WCI  18
ORD            CLOUDY    25  12  58 N10       30.34R WCI  15
YORK           SUNNY     25  18  74 N9        30.35S WCI  15
AURORA         SUNNY     25  17  72 N9        30.34S WCI  15
LEXINGTON      SUNNY     26  16  65 N6        30.33R WCI  20
HOLDREGE       SUNNY     25  17  72 NW8       30.32R WCI  17
HEBRON         MOSUNNY   26  18  73 W6        30.38R WCI  19

...NEBRASKA PANHANDLE...

CITY           SKY/WX    TMP DP  RH WIND       PRES   REMARKS
CHADRON        PTSUNNY   25  13  60 NW9       30.30R WCI  15
ALLIANCE       PTSUNNY   21  12  68 NW7       30.26R WCI  12
SCOTTSBLUFF    MOSUNNY   23  13  65 W8        30.27R WCI  14
SIDNEY         SUNNY     23  15  71 N6        30.26R WCI  16

...WESTERN AND NORTH CENTRAL NEBRASKA...

CITY           SKY/WX    TMP DP  RH WIND       PRES   REMARKS
VALENTINE      CLOUDY    23  13  65 W10       30.32R WCI  12
AINSWORTH      SUNNY     23  15  70 W7        30.31S WCI  14
ONEILL         PTSUNNY   24  16  73 NW9       30.34R WCI  14
BROKEN BOW     SUNNY     26  13  57 N9        30.32R WCI  17
IMPERIAL         N/A     24  14  65 N8        30.29R WCI  15
NORTH PLATTE   SUNNY     27   8  44 NE6       30.32R WCI  20
MCCOOK         SUNNY     28  15  58 VRB3      30.32R

...EASTERN NEBRASKA...

CITY           SKY/WX    TMP DP  RH WIND       PRES   REMARKS
NORFOLK        CLOUDY    26  13  57 N8        30.35R WCI  18
SO SIOUX CITY  CLOUDY    24  15  68 NW7       30.38R WCI  16
TEKAMAH        MOSUNNY   27  17  66 N12       30.39R WCI  17
COLUMBUS       PTSUNNY   27  12  54 N8        30.38S WCI  18
ALBION         MOSUNNY   23  14  68 NW6       30.35R WCI  16
OMAHA EPPLEY   MOSUNNY   25  15  66 NW8       30.39R WCI  16
OFFUTT AFB     SUNNY     26  17  68 NW8       30.38S WCI  17
MILLARD        SUNNY     24  16  71 W7        30.38S WCI  16
LINCOLN        SUNNY     26  17  68 NW8       30.39S WCI  18
NEBRASKA CITY  CLOUDY    26  16  67 W8        30.37F WCI  17
BEATRICE       CLOUDY    24  18  78 W6        30.38R WCI  17
FALLS CITY     PTSUNNY   26  19  74 VRB3      30.40R

...NORTHERN KANSAS...

CITY           SKY/WX    TMP DP  RH WIND       PRES   REMARKS
GOODLAND       CLOUDY    24  18  77 N10       30.26R WCI  14
HILL CITY      MOSUNNY   24  18  77 CALM      30.35R
NORTON         SUNNY     27  19  74 NW7       30.33  WCI  19
PHILLIPSBURG   SUNNY     27  21  80 W6        30.37S WCI  20
SMITH CENTER   MOSUNNY   23  21  93 W6        30.38R WCI  16
BELOIT         SUNNY     25  19  80 W5        30.40R WCI  19
HAYS           FAIR      25  12  58 W5        30.36R WCI  19
RUSSELL        MOSUNNY   24  19  81 NW5       30.36R WCI  18
CONCORDIA      CLOUDY    24  19  81 W6        30.39R WCI  17
SALINA         MOSUNNY   26  18  71 NW8       30.42R WCI  18
TOPEKA         PTSUNNY   26  20  77 W6        30.42R WCI  19



USA.gov is the U.S. government's official web portal to all federal, state and local government web resources and services.